Gainesville, FL

1:07 AM EDT on May 24, 2017 (GMT -0400)
Gainesville Regional

Weather History for KGNV - November, 2013

Change the Weather History Date:

Friday, November 29, 2013

  Actual Average Record
Temperature  
Mean Temperature 56 °F 60 °F  
Max Temperature 69 °F 71 °F 88 °F (1978)
Min Temperature 42 °F 48 °F 28 °F (1959)
Degree Days  
Heating Degree Days 9 7  
Month to date heating degree days 73 127  
Since 1 July heating degree days 88 154  
Cooling Degree Days 0 1  
Month to date cooling degree days 84 66  
Year to date cooling degree days 2825 2616  
Growing Degree Days 5 (Base 50)    
Moisture  
Dew Point 43 °F    
Average Humidity 66    
Maximum Humidity 89    
Minimum Humidity 42    
Precipitation  
Precipitation 0.00 in 0.07 in 2.03 in (1986)
Month to date precipitation 3.31 1.98  
Year to date precipitation 43.29 44.85  
Snow  
Snow 0.00 in 0.00 in 0.00 in ()
Month to date snowfall 0.0 0.0  
Since 1 July snowfall 0.0 0.0  
Since 1 September snowfall 0.0 0.0  
Snow Depth 0.00 in    
Sea Level Pressure  
Sea Level Pressure 30.40 in    
Wind  
Wind Speed 8 mph (NNE)    
Max Wind Speed 15 mph    
Max Gust Speed 20 mph    
Visibility 10 miles    
Events      
T = Trace of Precipitation, MM = Missing Value Source: NWS Daily Summary

Daily Weather History Graph

Daily Weather History Graph

Search for Another Location

Airport or City:

Trip Planner

Search our weather history database for the weather conditions in past years. The results will help you decide how hot, cold, wet, or windy it might be!

Date:

Astronomy

Nov. 29, 2013 Rise Set
Actual Time 7:05 AM EST 5:29 PM EST
Civil Twilight 6:39 AM EST 5:55 PM EST
Nautical Twilight 6:10 AM EST 6:24 PM EST
Astronomical Twilight 5:41 AM EST 6:53 PM EST
Moon 3:24 AM EST (11/29) 3:00 PM EST (11/29)
Length of Visible Light 11h 16m
Length of Day
10h 24m
Waning Crescent, 14% of the Moon is Illuminated
Nov 29
Waning Crescent
Dec 2
New
Dec 9
First Quarter
Dec 17
Full
Dec 25
Last Quarter

Hourly Weather History & Observations

Time (EST) Temp. Windchill Dew Point Humidity Pressure Visibility Wind Dir Wind Speed Gust Speed Precip Events Conditions
12:53 AM 44.1 °F 40.1 °F 39.0 °F 82% 30.41 in 10.0 mi North 6.9 mph - N/A   Mostly Cloudy
1:53 AM 44.1 °F 40.8 °F 39.0 °F 82% 30.40 in 10.0 mi NNE 5.8 mph - N/A   Mostly Cloudy
2:53 AM 43.0 °F 39.5 °F 39.0 °F 86% 30.40 in 10.0 mi North 5.8 mph - N/A   Scattered Clouds
3:53 AM 42.1 °F 39.2 °F 37.9 °F 85% 30.40 in 10.0 mi North 4.6 mph - N/A   Mostly Cloudy
4:53 AM 42.1 °F 39.2 °F 39.0 °F 89% 30.39 in 10.0 mi North 4.6 mph - N/A   Mostly Cloudy
5:53 AM 43.0 °F 40.3 °F 39.0 °F 86% 30.40 in 10.0 mi North 4.6 mph - N/A   Clear
6:53 AM 42.1 °F 38.4 °F 39.9 °F 92% 30.41 in 10.0 mi NNE 5.8 mph - N/A   Clear
7:53 AM 44.1 °F 40.1 °F 39.9 °F 85% 30.43 in 10.0 mi NNE 6.9 mph - N/A   Clear
8:53 AM 48.0 °F - 41.0 °F 77% 30.44 in 10.0 mi NE 5.8 mph - N/A   Clear
9:53 AM 55.9 °F - 45.0 °F 67% 30.45 in 10.0 mi NNE 6.9 mph - N/A   Clear
10:53 AM 62.1 °F - 48.0 °F 60% 30.43 in 10.0 mi NE 8.1 mph - N/A   Clear
11:53 AM 64.0 °F - 48.0 °F 56% 30.42 in 10.0 mi NNE 8.1 mph - N/A   Clear
12:53 PM 66.9 °F - 48.0 °F 51% 30.39 in 10.0 mi NE 10.4 mph 18.4 mph N/A   Clear
1:53 PM 68.0 °F - 48.0 °F 49% 30.37 in 10.0 mi NNE 12.7 mph - N/A   Partly Cloudy
2:53 PM 68.0 °F - 45.0 °F 43% 30.35 in 10.0 mi NNE 13.8 mph - N/A   Clear
3:53 PM 66.9 °F - 45.0 °F 45% 30.35 in 10.0 mi NE 9.2 mph - N/A   Partly Cloudy
4:53 PM 64.0 °F - 45.0 °F 50% 30.36 in 10.0 mi NE 9.2 mph - N/A   Clear
5:53 PM 57.9 °F - 46.9 °F 67% 30.38 in 10.0 mi ENE 10.4 mph - N/A   Clear
6:53 PM 54.0 °F - 46.0 °F 75% 30.39 in 10.0 mi NE 6.9 mph - N/A   Clear
7:53 PM 52.0 °F - 45.0 °F 77% 30.41 in 10.0 mi NNE 6.9 mph - N/A   Clear
8:53 PM 54.0 °F - 44.1 °F 69% 30.43 in 10.0 mi NE 9.2 mph - N/A   Overcast
9:53 PM 54.0 °F - 42.1 °F 64% 30.42 in 10.0 mi NNE 13.8 mph - N/A   Overcast
10:53 PM 53.1 °F - 46.0 °F 77% 30.40 in 10.0 mi NNE 8.1 mph - N/A   Mostly Cloudy
11:53 PM 53.1 °F - 46.9 °F 80% 30.39 in 10.0 mi NNE 5.8 mph - N/A   Mostly Cloudy